TimeMST,TemperatureF,Dew PointF,Humidity,Sea Level PressureIn,VisibilityMPH,Wind Direction,Wind SpeedMPH,Gust SpeedMPH,PrecipitationIn,Events,Conditions,WindDirDegrees,DateUTC
12:53 AM,24.1,10.0,55,30.16,10.0,NNW,10.4,-,N/A,,Clear,330,2013-02-27 07:53:00
1:53 AM,21.0,10.9,65,30.18,10.0,East,10.4,-,N/A,,Clear,80,2013-02-27 08:53:00
2:53 AM,19.0,10.0,68,30.19,10.0,Calm,Calm,-,N/A,,Clear,0,2013-02-27 09:53:00
3:53 AM,15.1,6.1,68,30.23,10.0,NNE,5.8,-,N/A,,Clear,30,2013-02-27 10:53:00
4:53 AM,12.9,7.0,77,30.27,10.0,ENE,6.9,-,N/A,,Clear,60,2013-02-27 11:53:00
5:53 AM,12.9,6.1,74,30.30,10.0,East,6.9,-,N/A,,Clear,80,2013-02-27 12:53:00
6:53 AM,12.0,5.0,73,30.32,10.0,East,6.9,-,N/A,,Clear,80,2013-02-27 13:53:00
8:53 AM,19.9,6.1,55,30.37,10.0,ESE,3.5,-,N/A,,Clear,120,2013-02-27 15:53:00
9:53 AM,26.1,6.1,43,30.34,10.0,SSE,3.5,-,N/A,,Clear,150,2013-02-27 16:53:00
10:53 AM,28.9,8.1,41,30.33,10.0,SSW,3.5,-,N/A,,Clear,210,2013-02-27 17:53:00
11:53 AM,35.1,10.0,35,30.27,10.0,Calm,Calm,-,N/A,,Clear,0,2013-02-27 18:53:00
12:53 PM,37.9,9.0,30,30.24,10.0,ESE,3.5,-,N/A,,Clear,110,2013-02-27 19:53:00
1:53 PM,39.0,8.1,28,30.24,10.0,Variable,3.5,-,N/A,,Partly Cloudy,0,2013-02-27 20:53:00
2:53 PM,39.9,6.1,25,30.22,10.0,NW,9.2,-,N/A,,Clear,320,2013-02-27 21:53:00
3:53 PM,39.9,5.0,23,30.24,10.0,North,9.2,-,N/A,,Clear,350,2013-02-27 22:53:00
4:53 PM,39.0,5.0,24,30.26,10.0,NW,9.2,-,N/A,,Clear,310,2013-02-27 23:53:00
5:53 PM,34.0,6.1,31,30.30,10.0,NW,9.2,-,N/A,,Clear,320,2013-02-28 00:53:00
6:53 PM,32.0,12.0,44,30.33,10.0,NNW,12.7,-,N/A,,Clear,340,2013-02-28 01:53:00
7:53 PM,30.9,9.0,40,30.33,10.0,NNW,11.5,-,N/A,,Clear,340,2013-02-28 02:53:00
9:53 PM,28.0,10.9,49,30.31,10.0,NE,4.6,-,N/A,,Clear,40,2013-02-28 04:53:00
10:53 PM,26.1,12.0,55,30.31,10.0,SE,3.5,-,N/A,,Clear,130,2013-02-28 05:53:00
11:53 PM,24.1,14.0,65,30.29,10.0,Calm,Calm,-,N/A,,Clear,0,2013-02-28 06:53:00